[[{"header":{"parameterUnit":"m.s-1","parameterCategory":2,"la1":30.2991,"la2":30.254,"lo1":-89.0895,"lo2":-89.0444,"dy":0.0017,"dx":0.0017,"nx":28,"ny":28,"refTime":"2024-05-22T03:00:00:Z","depth":"0","parameterNumber":2,"parameterNumberName":"U-component_of_CURRENTS"},"data":[0,0,0,0,0,0,0,0,0,0,0,0,0,0,0,0,0,0,0,0,0,0,0,0,0,0,0,0,0,0,0,0,0,0,0,0,0,0,0,0,0,0,0,0,0,0,0,0,0,0,0,0,0,0,0,0,0,0,0.3029,0.303,0,0.3053,0.3053,0.3053,0.3036,0.3036,0.3035,0.3034,0.3028,0.3028,0.3028,0,0,0,0,0,0,0,0,0,0,0,0,0,0.3,0.3,0.3029,0.303,0.303,0.3053,0.3053,0.3053,0.3036,0.3036,0.3035,0.3034,0.3028,0.3028,0.3028,0,0,0,0,0,0,0,0,0,0,0,0,0,0.3015,0.3,0.3029,0.3025,0.3025,0.3053,0.3053,0.3053,0.3036,0.3036,0.3035,0.3034,0.3027,0.3028,0.3029,0.3051,0,0,0.303,0.3031,0,0,0,0,0,0,0,0,0.3014,0.3016,0.3026,0.3026,0.3026,0.3042,0.304,0.3051,0.3037,0.3031,0.3034,0.3033,0.3031,0.3032,0.3036,0.305,0.305,0.303,0.3031,0.3031,0.3031,0,0,0,0,0,0,0,0.3013,0.3015,0.3037,0.3026,0.3026,0.3033,0.3034,0.3042,0.3034,0.3031,0.303,0.3036,0.3031,0.3036,0.3036,0.305,0.303,0.3031,0.3031,0.3031,0.312,0.3122,0,0,0,0,0,0,0.3013,0.3014,0.3036,0.3038,0.3019,0.3035,0.3035,0.3036,0.3035,0.3034,0.3037,0.3035,0.3035,0.3035,0.3036,0.3092,0.3031,0.3032,0.3032,0.3118,0.312,0.3123,0,0,0,0,0,0,0.3012,0.3015,0.3035,0.3028,0.3031,0.3036,0.3038,0.3037,0.3044,0.3039,0.3038,0.3044,0.3034,0.3035,0.3057,0.309,0.3032,0.3032,0.3116,0.3119,0.3121,0.3186,0,0,0,0,0,0,0.3011,0.3014,0.3015,0.3028,0.3032,0.306,0.3039,0.3039,0.305,0.3048,0.3045,0.3043,0.3034,0.3057,0.3058,0.309,0.3033,0.3113,0.3117,0.312,0.3181,0.3191,0.3199,0,0,0,0,0,0.301,0.3019,0.3015,0.3018,0.3033,0.3061,0.3064,0.3063,0.3051,0.3063,0.3065,0.3044,0.3081,0.3059,0.306,0.3093,0.3111,0.3116,0.312,0.3177,0.3189,0.3199,0,0,0,0,0,0,0.3006,0.3019,0.3015,0.3026,0.3045,0.3058,0.3072,0.3069,0.3081,0.3078,0.3066,0.3065,0.3099,0.3091,0.3066,0.3132,0.3095,0.31,0.3138,0.3149,0.3157,0.3161,0.3033,0,0,0,0,0,0.3007,0.3017,0.3032,0.3043,0.3054,0.3064,0.3074,0.3076,0.3088,0.3091,0.3088,0.3096,0.3121,0.3128,0.3141,0.3174,0.3186,0.3198,0.3207,0.3215,0.3221,0.3279,0.3293,0.3137,0.3137,0.3137,0,0,0.3008,0.3018,0.3022,0.3043,0.3057,0.3083,0.3068,0.3091,0.3116,0.309,0.3119,0.3125,0.3137,0.3177,0.3191,0.3172,0.3269,0.322,0.3226,0.3228,0.3285,0.33,0.3314,0.314,0.314,0.3139,0,0,0.3021,0.3027,0.304,0.3063,0.3088,0.31,0.311,0.3128,0.314,0.3168,0.3168,0.3196,0.3211,0.3239,0.3254,0.3321,0.3313,0.3324,0.337,0.3427,0.3441,0.3452,0.3497,0.3512,0.3328,0.3328,0.3328,0,0.3022,0.3034,0.3051,0.3077,0.3093,0.3111,0.3133,0.3163,0.3185,0.3204,0.3183,0.324,0.3246,0.3317,0.3342,0.3341,0.3366,0.3326,0.3439,0.345,0.3461,0.3504,0.352,0.3332,0.3331,0.3331,0.3331,0,0.3044,0.306,0.3077,0.3109,0.3136,0.316,0.3201,0.3233,0.324,0.326,0.3316,0.3332,0.3365,0.3381,0.3381,0.347,0.3461,0.3443,0.3409,0.3481,0.3522,0.3537,0.3337,0.3336,0.3334,0.3334,0,0,0.3028,0.3077,0.3083,0.3101,0.315,0.3175,0.3236,0.3288,0.3339,0.3356,0.3419,0.3459,0.3462,0.3481,0.3494,0.3544,0.3645,0.3529,0.353,0.3569,0.3771,0.3715,0.3726,0.3647,0.365,0.3653,0.3772,0,0.3035,0.3075,0.31,0.3147,0.317,0.3216,0.3274,0.3331,0.3378,0.3452,0.3487,0.355,0.3506,0.3541,0.3582,0.3645,0.3688,0.3614,0.37,0.3702,0.364,0.3743,0.3591,0.368,0.3787,0.3789,0.3791,0,0.304,0.3067,0.31,0.3164,0.3181,0.3217,0.3312,0.3371,0.3487,0.3527,0.3588,0.3625,0.3719,0.3668,0.3781,0.3738,0.3756,0.3784,0.3789,0.3722,0.3675,0.3625,0.3704,0.3636,0.3814,0.3812,0.3811,0,0.3008,0.3066,0.3085,0.3107,0.3187,0.3221,0.3276,0.3384,0.3464,0.3594,0.3672,0.3746,0.3825,0.3858,0.3902,0.386,0.4023,0.3969,0.3927,0.3923,0.3803,0.3782,0.3818,0.4036,0.4036,0.4035,0.4035,0,0.2999,0.3018,0.3074,0.309,0.3151,0.3208,0.33,0.338,0.3516,0.3621,0.3711,0.3811,0.3881,0.3973,0.3967,0.4009,0.4071,0.3962,0.3962,0.3821,0.3802,0.3742,0.369,0.404,0.4039,0.4038,0.4037,0,0.2965,0.2992,0.303,0.3104,0.3136,0.3185,0.3324,0.3399,0.3535,0.3688,0.3743,0.391,0.4023,0.4077,0.4166,0.411,0.4031,0.4129,0.3955,0.3931,0.3788,0.3744,0.3622,0.3513,0.4105,0.4104,0.4104,0,0.295,0.296,0.3038,0.3075,0.311,0.3195,0.3262,0.3395,0.3485,0.373,0.3801,0.3984,0.4073,0.4199,0.4154,0.4157,0.4026,0.4003,0.3879,0.3788,0.3741,0.3577,0.3482,0.3754,0.3751,0.3748,0.3746,0,0.2946,0.2966,0.3012,0.3073,0.3132,0.3197,0.3299,0.3367,0.353,0.3659,0.3819,0.3921,0.4069,0.4018,0.4046,0.4013,0.3809,0.3946,0.3904,0.352,0.3292,0.3184,0.367,0.3722,0.3725,0.3726,0.3728,0.3729,0.296,0.2984,0.3038,0.308,0.3138,0.3163,0.318,0.3284,0.3386,0.3513,0.3695,0.3769,0.386,0.3877,0.3833,0.369,0.3645,0.3557,0.3531,0.3391,0.3211,0.3643,0.3657,0.3659,0.3661,0.3662,0.3663,0,0.2973,0.2992,0.3041,0.3072,0.3072,0.3116,0.3175,0.3156,0.3191,0.3327,0.3423,0.3497,0.3481,0.3523,0.3463,0.3314,0.313,0.3216,0.2964,0.2906,0.3356,0.3268,0.3134,0.3134,0.3134,0.3134,0.3134,0.3134,0.2993,0.3015,0.3006,0.2981,0.2985,0.2929,0.2915,0.2901,0.2949,0.2953,0.2975,0.3071,0.3257,0.3276,0.3156,0.3072,0.2832,0.2665,0.2676,0.3026,0.3056,0.3084,0.2992,0.2802,0.2801,0.2093,0.2088,0.2084]},{"header":{"parameterUnit":"m.s-1","parameterCategory":2,"la1":30.2991,"la2":30.254,"lo1":-89.0895,"lo2":-89.0444,"dy":0.0017,"dx":0.0017,"nx":28,"ny":28,"refTime":"2024-05-22T03:00:00:Z","depth":"0","parameterNumber":3,"parameterNumberName":"V-component_of_CURRENTS"},"data":[0,0,0,0,0,0,0,0,0,0,0,0,0,0,0,0,0,0,0,0,0,0,0,0,0,0,0,0,0,0,0,0,0,0,0,0,0,0,0,0,0,0,0,0,0,0,0,0,0,0,0,0,0,0,0,0,0,0,0.0297,0.0297,0,0.0254,0.0254,0.0253,0.0216,0.0215,0.0215,0.0215,0.0155,0.0153,0.0152,0,0,0,0,0,0,0,0,0,0,0,0,0,0.0299,0.0299,0.0297,0.0297,0.0297,0.0254,0.0254,0.0253,0.0216,0.0215,0.0215,0.0215,0.0155,0.0154,0.0152,0,0,0,0,0,0,0,0,0,0,0,0,0,0.0279,0.0299,0.0297,0.0275,0.0272,0.0255,0.0254,0.0253,0.0216,0.0215,0.0215,0.0215,0.0156,0.0154,0.0152,0.0146,0,0,0.0145,0.0144,0,0,0,0,0,0,0,0,0.0281,0.0279,0.0278,0.0276,0.0273,0.0242,0.0232,0.0217,0.0216,0.0235,0.0215,0.0215,0.0184,0.0179,0.0169,0.0143,0.014,0.0145,0.0144,0.0143,0.0142,0,0,0,0,0,0,0,0.0282,0.0281,0.0278,0.0278,0.0275,0.025,0.0247,0.0229,0.021,0.0233,0.0231,0.023,0.0182,0.0172,0.0168,0.0139,0.0145,0.0143,0.0142,0.0141,0.0113,0.0113,0,0,0,0,0,0,0.0295,0.0282,0.028,0.0277,0.0279,0.0251,0.0247,0.0251,0.021,0.0205,0.023,0.0228,0.0175,0.017,0.0165,0.0176,0.0143,0.0141,0.014,0.0112,0.0113,0.0113,0,0,0,0,0,0,0.0295,0.0295,0.0281,0.028,0.0277,0.0252,0.0255,0.025,0.0243,0.0209,0.0202,0.0229,0.0175,0.0168,0.0157,0.0173,0.014,0.0138,0.0112,0.0112,0.0113,0.0185,0,0,0,0,0,0,0.0295,0.0296,0.03,0.0281,0.0277,0.0281,0.0256,0.0249,0.0244,0.0241,0.0206,0.02,0.0174,0.016,0.0155,0.0169,0.0137,0.0111,0.0112,0.0113,0.0182,0.0188,0.0193,0,0,0,0,0,0.0296,0.0309,0.0301,0.03,0.0286,0.0281,0.0277,0.0256,0.0244,0.0247,0.0223,0.0201,0.0162,0.0159,0.0153,0.0167,0.011,0.0112,0.0113,0.018,0.0187,0.0193,0,0,0,0,0,0,0.0311,0.0306,0.0297,0.0307,0.0299,0.0276,0.0279,0.0263,0.0246,0.0242,0.0207,0.02,0.0193,0.017,0.0168,0.016,0.0132,0.0132,0.0185,0.0192,0.0198,0.0221,0.0135,0,0,0,0,0,0.0318,0.0327,0.0315,0.0323,0.0324,0.0302,0.0297,0.0283,0.0266,0.0258,0.0234,0.0209,0.0192,0.0185,0.0162,0.0162,0.0136,0.0166,0.0172,0.0177,0.0191,0.0164,0.0169,0.0117,0.0117,0.0117,0,0,0.0326,0.0324,0.0329,0.0327,0.0319,0.0331,0.0298,0.0298,0.0308,0.0255,0.0259,0.0226,0.0195,0.0192,0.0187,0.0177,0.0176,0.0178,0.0183,0.0195,0.0166,0.0171,0.0176,0.0118,0.0117,0.0117,0,0,0.0353,0.0348,0.0367,0.0366,0.0362,0.0352,0.0357,0.0339,0.0333,0.0329,0.0295,0.0276,0.0248,0.0232,0.022,0.0244,0.0204,0.0234,0.0287,0.0261,0.0266,0.0269,0.0238,0.0238,0.0241,0.0242,0.0242,0,0.0361,0.0387,0.0371,0.039,0.04,0.0369,0.0395,0.0386,0.0364,0.037,0.034,0.0304,0.027,0.0278,0.0282,0.0259,0.0234,0.0266,0.027,0.0273,0.0275,0.0242,0.0241,0.0245,0.0245,0.0244,0.0244,0,0.0404,0.0424,0.0438,0.0456,0.0461,0.0478,0.0469,0.0471,0.0455,0.0444,0.0439,0.0387,0.0368,0.0351,0.0322,0.0329,0.0303,0.0277,0.0256,0.0285,0.0248,0.0246,0.025,0.0249,0.0248,0.0247,0,0,0.0431,0.0465,0.047,0.0498,0.0502,0.0516,0.0536,0.0553,0.0587,0.0539,0.0574,0.0516,0.0482,0.0466,0.0423,0.0399,0.0382,0.0352,0.0349,0.0328,0.0321,0.0305,0.03,0.0357,0.0357,0.0357,0.0287,0,0.0474,0.0534,0.0533,0.0591,0.0627,0.0613,0.0647,0.0653,0.0649,0.0672,0.0613,0.0625,0.053,0.0533,0.0485,0.0422,0.0381,0.0403,0.0291,0.0288,0.0275,0.0299,0.0316,0.0255,0.0284,0.0284,0.0284,0,0.0519,0.0559,0.0626,0.0686,0.0702,0.073,0.0786,0.0812,0.0826,0.0826,0.08,0.0759,0.0721,0.0639,0.0516,0.0535,0.0431,0.0365,0.036,0.0322,0.0268,0.0231,0.025,0.0121,0.028,0.028,0.028,0,0.0563,0.0625,0.0688,0.0705,0.0761,0.0796,0.0832,0.0862,0.0922,0.0935,0.0986,0.0893,0.0892,0.0742,0.058,0.0554,0.0447,0.0391,0.0271,0.0268,0.025,0.0245,0.0139,0.0296,0.0296,0.0296,0.0296,0,0.0617,0.0667,0.0719,0.0756,0.0858,0.0864,0.0974,0.0995,0.106,0.1168,0.1076,0.114,0.0921,0.0831,0.0638,0.0459,0.048,0.0291,0.0255,0.0274,0.0273,0.0133,0.0024,0.0293,0.0294,0.0294,0.0295,0,0.066,0.0687,0.0771,0.0846,0.0884,0.0959,0.109,0.1174,0.122,0.136,0.1383,0.1339,0.1217,0.098,0.0758,0.057,0.0291,0.0303,0.0337,0.0307,0.0067,-0.0039,-0.0201,-0.0269,0.0161,0.016,0.0159,0,0.069,0.0736,0.0846,0.0921,0.0965,0.1081,0.118,0.1252,0.1357,0.15,0.1583,0.1518,0.1495,0.1148,0.0788,0.0446,0.0275,0.025,0.0194,0.0069,-0.0076,-0.0137,-0.0187,0.0189,0.0189,0.0189,0.0188,0,0.076,0.0793,0.0871,0.1021,0.1134,0.127,0.1414,0.1522,0.1639,0.1765,0.19,0.1899,0.1584,0.125,0.0783,0.0542,0.0155,0.0235,0.0099,-0.0062,-0.013,-0.0216,0.0212,0.0186,0.0186,0.0187,0.0187,0.0187,0.082,0.0891,0.0997,0.1137,0.1274,0.1443,0.1569,0.1732,0.1919,0.211,0.2101,0.2127,0.1679,0.1039,0.0709,0.0147,0.0114,-0.0018,-0.0137,-0.0186,-0.0248,0.0177,0.0117,0.0116,0.0116,0.0116,0.0116,0,0.0898,0.0981,0.1114,0.1283,0.1432,0.1492,0.1717,0.1854,0.2083,0.2231,0.2327,0.2118,0.1563,0.1003,0.0239,-0.0135,-0.0272,-0.0342,-0.0426,-0.0462,-0.0081,-0.0072,-0.0167,-0.0166,-0.0166,-0.0166,-0.0166,-0.0166,0.0951,0.1077,0.1135,0.138,0.1506,0.1711,0.1838,0.2048,0.2193,0.2369,0.2377,0.2341,0.1936,0.0608,-0.0267,-0.0477,-0.0703,-0.0783,-0.0906,-0.0648,-0.0626,-0.0605,-0.0618,-0.0826,-0.0827,-0.1201,-0.1205,-0.1208]}],[{"header":{"parameterUnit":"m.s-1","parameterCategory":2,"la1":30.2991,"la2":30.254,"lo1":-89.0895,"lo2":-89.0444,"dy":0.0017,"dx":0.0017,"nx":28,"ny":28,"refTime":"2024-05-22T03:00:00:Z","depth":"2","parameterNumber":2,"parameterNumberName":"U-component_of_CURRENTS"},"data":[0,0,0,0,0,0,0,0,0,0,0,0,0,0,0,0,0,0,0,0,0,0,0,0,0,0,0,0,0,0,0,0,0,0,0,0,0,0,0,0,0,0,0,0,0,0,0,0,0,0,0,0,0,0,0,0,0,0,0.2792,0.2793,0,0.2815,0.2815,0.2815,0.2811,0.281,0.281,0.281,0.2817,0.2818,0.2818,0,0,0,0,0,0,0,0,0,0,0,0,0,0.2765,0.2765,0.2792,0.2793,0.2793,0.2815,0.2815,0.2815,0.2811,0.281,0.281,0.281,0.2817,0.2818,0.2818,0,0,0,0,0,0,0,0,0,0,0,0,0,0.278,0.2765,0.2792,0.2795,0.2795,0.2815,0.2815,0.2815,0.2811,0.281,0.281,0.281,0.2817,0.2818,0.2818,0.2831,0,0,0.282,0.2821,0,0,0,0,0,0,0,0,0.2779,0.278,0.2794,0.2795,0.2795,0.2811,0.2808,0.282,0.2811,0.2803,0.281,0.2809,0.2815,0.2816,0.2819,0.2831,0.2831,0.2821,0.2821,0.2821,0.2821,0,0,0,0,0,0,0,0.2778,0.278,0.28,0.2794,0.2795,0.2802,0.2803,0.281,0.281,0.2804,0.2804,0.2809,0.2815,0.2818,0.2819,0.2831,0.2821,0.2821,0.2822,0.2822,0.2907,0.2909,0,0,0,0,0,0,0.2778,0.2779,0.2799,0.2801,0.2788,0.2802,0.2804,0.2805,0.281,0.2811,0.2809,0.2809,0.2817,0.2818,0.2819,0.288,0.2821,0.2822,0.2822,0.2905,0.2908,0.291,0,0,0,0,0,0,0.2777,0.2779,0.2798,0.2791,0.2794,0.2803,0.2805,0.2806,0.2819,0.2815,0.2815,0.2822,0.2817,0.2819,0.2843,0.2878,0.2822,0.2823,0.2903,0.2906,0.2909,0.2971,0,0,0,0,0,0,0.2776,0.2778,0.2783,0.2791,0.2795,0.282,0.2805,0.2806,0.2822,0.2822,0.2826,0.2826,0.2817,0.2842,0.2844,0.2878,0.2823,0.2901,0.2905,0.2908,0.2967,0.2976,0.2983,0,0,0,0,0,0.2775,0.2783,0.2783,0.2785,0.2799,0.2821,0.2824,0.2827,0.2824,0.2836,0.2842,0.2826,0.2866,0.2844,0.2846,0.2881,0.2899,0.2904,0.2908,0.2963,0.2974,0.2983,0,0,0,0,0,0,0.2772,0.2784,0.2783,0.2794,0.2811,0.2821,0.2835,0.2837,0.2851,0.2853,0.2845,0.2846,0.2882,0.2875,0.2851,0.2918,0.2882,0.2887,0.2924,0.2934,0.2942,0.2946,0.2824,0,0,0,0,0,0.2774,0.2784,0.2797,0.2808,0.2819,0.283,0.284,0.2845,0.2857,0.2863,0.2866,0.2877,0.29,0.2911,0.2922,0.2955,0.2965,0.2982,0.299,0.2997,0.3003,0.3054,0.3068,0.2924,0.2924,0.2923,0,0,0.2776,0.2785,0.279,0.2809,0.2823,0.2845,0.2835,0.2859,0.2883,0.2862,0.2896,0.2904,0.2915,0.2955,0.2971,0.2953,0.3046,0.3003,0.3008,0.301,0.306,0.3074,0.3087,0.2926,0.2926,0.2925,0,0,0.2787,0.2796,0.2808,0.2828,0.2854,0.2865,0.2875,0.2894,0.291,0.2939,0.2941,0.2973,0.2991,0.3016,0.3029,0.3093,0.3087,0.3099,0.3145,0.3195,0.3208,0.3218,0.3255,0.3269,0.3104,0.3105,0.3105,0,0.279,0.2801,0.2817,0.284,0.2856,0.2876,0.2896,0.2925,0.295,0.2971,0.2957,0.3015,0.3023,0.3089,0.3114,0.3112,0.3134,0.3104,0.3206,0.3217,0.3227,0.3262,0.3276,0.3108,0.3108,0.3107,0.3107,0,0.2807,0.2823,0.2838,0.2869,0.2893,0.2916,0.2955,0.2988,0.3004,0.3024,0.3083,0.31,0.3136,0.3151,0.3151,0.3235,0.3226,0.3209,0.3178,0.3245,0.3278,0.3291,0.3113,0.3112,0.3111,0.311,0,0,0.2792,0.2836,0.2842,0.2859,0.2907,0.2928,0.2988,0.3037,0.3086,0.3112,0.3171,0.3215,0.3227,0.3245,0.326,0.3304,0.3396,0.3292,0.3293,0.3324,0.3507,0.3442,0.3449,0.34,0.3402,0.3404,0.3504,0,0.2797,0.283,0.2855,0.2897,0.2917,0.2964,0.3018,0.3074,0.3122,0.3191,0.3231,0.3292,0.3266,0.3301,0.3342,0.3393,0.3434,0.3371,0.3441,0.3443,0.3373,0.3464,0.318,0.324,0.3517,0.3519,0.3521,0,0.2798,0.2821,0.2851,0.2909,0.2925,0.296,0.305,0.3106,0.3215,0.3257,0.3323,0.3359,0.3451,0.3411,0.3518,0.3481,0.3499,0.3521,0.3525,0.3449,0.3403,0.3218,0.3254,0.3543,0.3541,0.354,0.3538,0,0.2766,0.2817,0.2837,0.2857,0.293,0.2966,0.3018,0.3121,0.3189,0.3318,0.3382,0.3465,0.3538,0.3575,0.3619,0.3584,0.3724,0.3679,0.363,0.3625,0.3389,0.3359,0.3743,0.3743,0.3742,0.3742,0.3742,0,0.2753,0.2771,0.2827,0.2842,0.2892,0.2953,0.3037,0.3112,0.3235,0.3326,0.3419,0.3502,0.3585,0.3667,0.3671,0.3705,0.3767,0.366,0.3657,0.3404,0.3375,0.3632,0.3618,0.3746,0.3745,0.3744,0.3744,0,0.2716,0.2747,0.2778,0.2849,0.2877,0.292,0.3044,0.3108,0.3238,0.3369,0.3419,0.3571,0.3678,0.3739,0.3827,0.3781,0.3811,0.3796,0.3492,0.3451,0.3661,0.3649,0.3759,0.3757,0.3756,0.3755,0.3755,0,0.2698,0.2707,0.2775,0.2801,0.2835,0.2913,0.2968,0.3097,0.3169,0.3393,0.3444,0.3612,0.3682,0.3796,0.3765,0.3774,0.3822,0.3502,0.3377,0.3682,0.3668,0.3658,0.3648,0.3091,0.3085,0.308,0.3076,0,0.2675,0.2697,0.2731,0.2773,0.2822,0.2875,0.2963,0.3013,0.3176,0.3278,0.3407,0.3489,0.3625,0.3512,0.355,0.3504,0.3478,0.3401,0.3819,0.3133,0.3061,0.3045,0.3055,0.3032,0.3036,0.3039,0.3042,0.3044,0.2662,0.2671,0.2711,0.2738,0.279,0.2806,0.2806,0.2896,0.2972,0.3074,0.3243,0.327,0.3317,0.3231,0.3129,0.3053,0.3283,0.311,0.3122,0.314,0.3047,0.2977,0.2914,0.2918,0.2921,0.2924,0.2926,0,0.2622,0.2635,0.2671,0.2677,0.2671,0.2738,0.2772,0.2725,0.2731,0.2873,0.294,0.2743,0.2691,0.2735,0.2557,0.255,0.2483,0.2433,0.2314,0.2363,0.2406,0.227,0.1934,0.193,0.1927,0.1924,0,0,0.2603,0.2602,0.2598,0.2551,0.2558,0.2494,0.2479,0.2425,0.2453,0.2414,0.2419,0.2624,0.2704,0.2307,0.2241,0.2058,0.2189,0.1975,0.2783,0.2697,0.2735,0.2822,0.2673,0,0,0,0,0]},{"header":{"parameterUnit":"m.s-1","parameterCategory":2,"la1":30.2991,"la2":30.254,"lo1":-89.0895,"lo2":-89.0444,"dy":0.0017,"dx":0.0017,"nx":28,"ny":28,"refTime":"2024-05-22T03:00:00:Z","depth":"2","parameterNumber":3,"parameterNumberName":"V-component_of_CURRENTS"},"data":[0,0,0,0,0,0,0,0,0,0,0,0,0,0,0,0,0,0,0,0,0,0,0,0,0,0,0,0,0,0,0,0,0,0,0,0,0,0,0,0,0,0,0,0,0,0,0,0,0,0,0,0,0,0,0,0,0,0,0.0171,0.0171,0,0.0132,0.0131,0.0131,0.0098,0.0098,0.0098,0.0098,0.0045,0.0044,0.0042,0,0,0,0,0,0,0,0,0,0,0,0,0,0.0173,0.0173,0.0171,0.0171,0.0171,0.0132,0.0131,0.013,0.0098,0.0098,0.0098,0.0098,0.0045,0.0044,0.0042,0,0,0,0,0,0,0,0,0,0,0,0,0,0.0155,0.0173,0.0171,0.0152,0.0149,0.0132,0.0131,0.013,0.0098,0.0098,0.0098,0.0098,0.0046,0.0044,0.0042,0.0035,0,0,0.0036,0.0036,0,0,0,0,0,0,0,0,0.0156,0.0155,0.0155,0.0153,0.0151,0.0121,0.0112,0.0098,0.0099,0.0116,0.0098,0.0098,0.0071,0.0067,0.0057,0.0033,0.003,0.0036,0.0035,0.0034,0.0034,0,0,0,0,0,0,0,0.0158,0.0156,0.0154,0.0154,0.0152,0.0129,0.0126,0.0109,0.0093,0.0114,0.0112,0.0111,0.0069,0.0059,0.0056,0.003,0.0036,0.0035,0.0033,0.0033,0.0008,0.0009,0,0,0,0,0,0,0.0169,0.0158,0.0155,0.0153,0.0155,0.0129,0.0126,0.0129,0.0094,0.0089,0.0111,0.011,0.0063,0.0058,0.0054,0.0066,0.0034,0.0032,0.0031,0.0008,0.0008,0.0009,0,0,0,0,0,0,0.0169,0.0169,0.0157,0.0155,0.0152,0.013,0.0134,0.0129,0.0124,0.0092,0.0086,0.0112,0.0062,0.0057,0.0047,0.0063,0.0032,0.003,0.0007,0.0008,0.0009,0.0076,0,0,0,0,0,0,0.017,0.017,0.0175,0.0157,0.0153,0.0156,0.0134,0.0128,0.0124,0.0122,0.0091,0.0085,0.0062,0.005,0.0045,0.006,0.0028,0.0007,0.0008,0.0008,0.0073,0.0079,0.0084,0,0,0,0,0,0.017,0.0183,0.0175,0.0175,0.0161,0.0157,0.0153,0.0135,0.0125,0.0128,0.0107,0.0086,0.0053,0.0049,0.0043,0.0058,0.0006,0.0007,0.0008,0.0071,0.0078,0.0084,0,0,0,0,0,0,0.0185,0.0181,0.0172,0.0182,0.0174,0.0153,0.0156,0.0142,0.0127,0.0125,0.0093,0.0086,0.0082,0.006,0.0058,0.0052,0.0026,0.0026,0.0076,0.0082,0.0087,0.0109,0.0027,0,0,0,0,0,0.0192,0.0201,0.0189,0.0197,0.0198,0.0177,0.0173,0.0161,0.0146,0.0139,0.0118,0.0096,0.008,0.0075,0.0054,0.0055,0.0027,0.0059,0.0065,0.0069,0.0083,0.0052,0.0056,0.0013,0.0013,0.0013,0,0,0.0199,0.0198,0.0202,0.0201,0.0193,0.0204,0.0174,0.0175,0.0185,0.0136,0.0143,0.0112,0.0083,0.0082,0.0078,0.0068,0.0065,0.0071,0.0075,0.0086,0.0053,0.0057,0.0061,0.0013,0.0013,0.0013,0,0,0.0225,0.0221,0.0239,0.0238,0.0234,0.0225,0.023,0.0214,0.0211,0.0208,0.0177,0.0159,0.0135,0.012,0.0109,0.0133,0.0091,0.0124,0.0174,0.0144,0.0147,0.015,0.0115,0.0114,0.0131,0.0131,0.0131,0,0.0234,0.0258,0.0242,0.026,0.027,0.0241,0.0266,0.0259,0.0241,0.0246,0.022,0.0185,0.0156,0.0162,0.0168,0.0147,0.012,0.0154,0.0152,0.0154,0.0155,0.0118,0.0117,0.0135,0.0134,0.0134,0.0134,0,0.0274,0.0293,0.0306,0.0323,0.0328,0.0345,0.0337,0.034,0.0326,0.0315,0.031,0.0264,0.0247,0.0231,0.0207,0.021,0.0183,0.0159,0.0138,0.0164,0.0123,0.012,0.0139,0.0138,0.0137,0.0136,0,0,0.0299,0.033,0.0335,0.0361,0.0367,0.0379,0.04,0.0416,0.0443,0.0403,0.0428,0.0383,0.0351,0.0337,0.0298,0.0271,0.025,0.0228,0.0225,0.0198,0.0179,0.0155,0.0148,0.0224,0.0224,0.0224,0.0144,0,0.0339,0.0395,0.0395,0.045,0.0482,0.047,0.0501,0.0506,0.0501,0.0515,0.0463,0.0467,0.0396,0.0394,0.0351,0.0284,0.0246,0.0274,0.0154,0.015,0.013,0.0145,0.0166,0.0096,0.014,0.014,0.0139,0,0.0381,0.0418,0.0481,0.0535,0.0549,0.0574,0.0622,0.0647,0.0652,0.0648,0.0624,0.0583,0.0545,0.0478,0.0362,0.0383,0.0289,0.0222,0.0217,0.0172,0.012,0.0077,0.0088,0.0133,0.0134,0.0134,0.0135,0,0.042,0.0478,0.0537,0.0553,0.0604,0.0634,0.0665,0.0688,0.0735,0.0739,0.0765,0.0691,0.0677,0.0548,0.04,0.0384,0.0265,0.0222,0.0106,0.0102,0.0086,0.0082,0.0134,0.0134,0.0134,0.0134,0.0134,0,0.047,0.0516,0.0563,0.0597,0.0684,0.0693,0.0784,0.0801,0.0846,0.0924,0.0843,0.0873,0.0695,0.0602,0.0441,0.027,0.0289,0.0122,0.0085,0.0109,0.0108,0.0115,0.0114,0.0131,0.0132,0.0132,0.0133,0,0.0506,0.0534,0.0608,0.0674,0.0706,0.077,0.0876,0.0942,0.0971,0.1068,0.108,0.1017,0.0901,0.0704,0.0505,0.0343,0.0171,0.01,0.0138,0.0107,0.0014,0.0017,-0.0036,-0.0037,-0.0038,-0.0039,-0.004,0,0.053,0.057,0.0667,0.0728,0.0765,0.0865,0.0944,0.1003,0.1081,0.1165,0.1215,0.1137,0.1095,0.0779,0.0491,0.0207,0.0166,0.003,-0.0001,0.003,-0.0001,0.0004,0.0009,-0.0004,-0.0004,-0.0004,-0.0005,0,0.0579,0.0609,0.0677,0.08,0.0892,0.1008,0.1121,0.1202,0.1292,0.1368,0.1436,0.1409,0.1131,0.0847,0.0461,0.0263,0.0075,0.0012,0.0041,0.0041,0.0055,0.0026,0.0031,-0.0008,-0.0008,-0.0008,-0.0007,-0.0007,0.0617,0.0673,0.0761,0.088,0.0995,0.1135,0.1236,0.1358,0.1494,0.1616,0.1583,0.1552,0.1239,0.0745,0.0403,0.0047,0.0064,-0.0073,-0.007,-0.0066,-0.0043,-0.0032,-0.0107,-0.0108,-0.0108,-0.0108,-0.0108,0,0.0662,0.0729,0.0838,0.0978,0.1104,0.1168,0.1345,0.1438,0.1601,0.1711,0.1758,0.146,0.1149,0.0787,0.0262,-0.0052,-0.0076,-0.016,-0.0118,-0.0112,-0.0108,-0.0086,-0.0162,-0.0163,-0.0164,-0.0165,0,0,0.069,0.0789,0.0842,0.1041,0.1152,0.1321,0.1429,0.157,0.1673,0.1761,0.176,0.171,0.1272,0.0882,0.0451,0.0147,0.0089,0.0082,0.0159,0.0266,0.0275,-0.0025,0.002,0,0,0,0,0]}],[{"header":{"parameterUnit":"m.s-1","parameterCategory":2,"la1":30.2991,"la2":30.254,"lo1":-89.0895,"lo2":-89.0444,"dy":0.0017,"dx":0.0017,"nx":28,"ny":28,"refTime":"2024-05-22T03:00:00:Z","depth":"4","parameterNumber":2,"parameterNumberName":"U-component_of_CURRENTS"},"data":[0,0,0,0,0,0,0,0,0,0,0,0,0,0,0,0,0,0,0,0,0,0,0,0,0,0,0,0,0,0,0,0,0,0,0,0,0,0,0,0,0,0,0,0,0,0,0,0,0,0,0,0,0,0,0,0,0,0,0.1839,0.184,0,0.1897,0.1898,0.1898,0.1954,0.1955,0.1956,0.1957,0.2039,0.204,0.2041,0,0,0,0,0,0,0,0,0,0,0,0,0,0.1773,0.1774,0.1839,0.184,0.1841,0.1897,0.1898,0.1899,0.1954,0.1955,0.1956,0.1957,0.2038,0.204,0.2041,0,0,0,0,0,0,0,0,0,0,0,0,0,0.1812,0.1774,0.1839,0.1877,0.1881,0.1897,0.1898,0.1899,0.1954,0.1955,0.1956,0.1958,0.2038,0.204,0.2042,0.2029,0,0,0.2048,0.2049,0,0,0,0,0,0,0,0,0.181,0.1815,0.187,0.1874,0.1879,0.1921,0.1905,0.1944,0.1954,0.1925,0.1957,0.1958,0.2001,0.2007,0.2012,0.2033,0.2036,0.2048,0.2049,0.205,0.2051,0,0,0,0,0,0,0,0.1807,0.1812,0.1861,0.1871,0.1876,0.1889,0.1896,0.1912,0.1954,0.1927,0.1932,0.194,0.2004,0.201,0.2015,0.2038,0.2048,0.205,0.2051,0.2052,0.2177,0.2179,0,0,0,0,0,0,0.1802,0.181,0.1859,0.1863,0.1848,0.189,0.1897,0.1905,0.1954,0.1963,0.1939,0.1942,0.2006,0.2012,0.2018,0.2117,0.205,0.2052,0.2053,0.2175,0.2177,0.2179,0,0,0,0,0,0,0.18,0.1806,0.1857,0.1839,0.1846,0.189,0.1898,0.1906,0.1952,0.1963,0.1972,0.1982,0.2007,0.2015,0.2069,0.2116,0.2053,0.2055,0.2172,0.2175,0.2178,0.2243,0,0,0,0,0,0,0.1798,0.1805,0.1827,0.1838,0.1847,0.1892,0.1897,0.1906,0.1953,0.1959,0.2002,0.2009,0.2009,0.2066,0.2071,0.2118,0.2057,0.217,0.2174,0.2177,0.2238,0.2248,0.2256,0,0,0,0,0,0.1795,0.1813,0.1827,0.1835,0.187,0.1893,0.1899,0.1932,0.1954,0.1979,0.2013,0.201,0.2095,0.2069,0.2075,0.2123,0.2168,0.2172,0.2177,0.2234,0.2246,0.2256,0,0,0,0,0,0,0.1797,0.182,0.1837,0.1862,0.1889,0.1904,0.1935,0.1954,0.1999,0.2019,0.2029,0.2038,0.2103,0.2104,0.2076,0.2172,0.2133,0.2139,0.2175,0.2186,0.2195,0.2193,0.2058,0,0,0,0,0,0.1806,0.183,0.185,0.1877,0.1894,0.1923,0.1945,0.1966,0.1997,0.202,0.2049,0.2085,0.2119,0.2147,0.217,0.2219,0.2222,0.2257,0.2266,0.2273,0.2277,0.2325,0.2338,0.2195,0.2195,0.2194,0,0,0.1816,0.1832,0.1849,0.188,0.1908,0.1935,0.1941,0.1984,0.2019,0.202,0.2092,0.2116,0.2138,0.2195,0.2226,0.2209,0.2318,0.2279,0.2285,0.2285,0.2331,0.2345,0.2357,0.2198,0.2197,0.2197,0,0,0.1831,0.1864,0.1885,0.1911,0.1956,0.1971,0.1992,0.203,0.2067,0.2121,0.214,0.2194,0.2242,0.227,0.2288,0.2361,0.236,0.238,0.243,0.2477,0.2489,0.2499,0.2523,0.2536,0.2389,0.2389,0.2389,0,0.1847,0.1869,0.1897,0.1924,0.1951,0.1992,0.202,0.206,0.2114,0.2149,0.2157,0.2253,0.2275,0.2347,0.2378,0.2382,0.2402,0.2385,0.2488,0.2498,0.2508,0.253,0.2543,0.2393,0.2392,0.2392,0.2392,0,0.1861,0.1898,0.1918,0.1964,0.1997,0.2032,0.208,0.2135,0.2183,0.2215,0.2305,0.2339,0.2398,0.242,0.2423,0.2513,0.2502,0.2489,0.2457,0.2526,0.2545,0.2557,0.2398,0.2397,0.2396,0.2395,0,0,0.1845,0.1913,0.1925,0.1954,0.2022,0.2046,0.2122,0.2187,0.2247,0.2312,0.2386,0.2456,0.2488,0.2511,0.2535,0.2579,0.2667,0.2574,0.2575,0.2591,0.2768,0.2587,0.2582,0.2679,0.2682,0.2684,0.2754,0,0.1852,0.1899,0.1935,0.1996,0.2024,0.2091,0.2154,0.2227,0.2296,0.238,0.2443,0.2521,0.2521,0.2569,0.2616,0.266,0.2702,0.2648,0.2704,0.2705,0.253,0.2591,0.2692,0.2762,0.2765,0.2767,0.2768,0,0.1844,0.188,0.1934,0.2012,0.2034,0.2085,0.2195,0.2259,0.2382,0.2442,0.2534,0.2584,0.2685,0.2665,0.2773,0.2746,0.2767,0.2783,0.2786,0.2599,0.2545,0.268,0.2789,0.2788,0.2786,0.2785,0.2784,0,0.1798,0.1875,0.192,0.1948,0.2045,0.2101,0.2168,0.2286,0.2352,0.2499,0.2564,0.2673,0.2751,0.2801,0.2851,0.2831,0.2945,0.2915,0.2764,0.2752,0.2865,0.2853,0.2977,0.2977,0.2977,0.2977,0.2977,0,0.1766,0.1808,0.1912,0.1937,0.2006,0.209,0.2184,0.2272,0.2403,0.2479,0.2604,0.2671,0.2794,0.2868,0.2886,0.2861,0.2979,0.2777,0.276,0.289,0.2881,0.2873,0.286,0.298,0.2979,0.2978,0.2978,0,0.1703,0.1772,0.1828,0.1943,0.1986,0.2043,0.2183,0.2242,0.239,0.2498,0.2553,0.2709,0.2799,0.2883,0.2971,0.289,0.2892,0.2851,0.2992,0.2981,0.2657,0.2647,0.2679,0.2674,0.2669,0.2665,0.2661,0,0.1668,0.1694,0.182,0.1858,0.1918,0.2016,0.2076,0.2224,0.2284,0.2489,0.2521,0.2674,0.2756,0.2738,0.2834,0.285,0.2815,0.2789,0.2706,0.2647,0.2629,0.2627,0.2623,0.2653,0.2652,0.2651,0.265,0,0.1597,0.1661,0.1707,0.1789,0.1859,0.1916,0.2019,0.2047,0.2213,0.237,0.2432,0.2478,0.2572,0.2624,0.2661,0.2665,0.2789,0.2737,0.2746,0.2668,0.2616,0.2603,0.2605,0.2633,0.2635,0.2637,0.2638,0,0.1549,0.156,0.1634,0.1687,0.1766,0.1783,0.1855,0.1919,0.1995,0.2218,0.2232,0.2395,0.2546,0.2529,0.2562,0.2554,0.2506,0.2407,0.2432,0.2452,0.2342,0.2241,0.2131,0,0,0,0,0,0.1483,0.1477,0.1522,0.1558,0.1629,0.1676,0.1793,0.1868,0.2032,0.2019,0.2119,0.2193,0.2244,0.2326,0.2271,0.2453,0.2512,0.2376,0.2411,0.2539,0.2559,0.2449,0,0,0,0,0,0,0.1436,0.1471,0.1474,0.1433,0.1441,0.1495,0.1564,0.1681,0.1683,0.1869,0.1913,0.2051,0.2139,0.2256,0.2228,0.2251,0.2223,0.248,0.2473,0.2528,0.2546,0.2561,0.2456,0,0,0,0,0]},{"header":{"parameterUnit":"m.s-1","parameterCategory":2,"la1":30.2991,"la2":30.254,"lo1":-89.0895,"lo2":-89.0444,"dy":0.0017,"dx":0.0017,"nx":28,"ny":28,"refTime":"2024-05-22T03:00:00:Z","depth":"4","parameterNumber":3,"parameterNumberName":"V-component_of_CURRENTS"},"data":[0,0,0,0,0,0,0,0,0,0,0,0,0,0,0,0,0,0,0,0,0,0,0,0,0,0,0,0,0,0,0,0,0,0,0,0,0,0,0,0,0,0,0,0,0,0,0,0,0,0,0,0,0,0,0,0,0,0,0.0094,0.0094,0,0.007,0.0069,0.0069,0.0047,0.0047,0.0047,0.0047,0.001,0.0009,0.0009,0,0,0,0,0,0,0,0,0,0,0,0,0,0.0091,0.0091,0.0094,0.0094,0.0094,0.007,0.0069,0.0069,0.0047,0.0047,0.0047,0.0047,0.001,0.0009,0.0008,0,0,0,0,0,0,0,0,0,0,0,0,0,0.0081,0.0091,0.0094,0.0081,0.008,0.007,0.0069,0.0069,0.0047,0.0047,0.0047,0.0047,0.0011,0.001,0.0008,0.0005,0,0,0.0004,0.0004,0,0,0,0,0,0,0,0,0.0082,0.0081,0.0083,0.0082,0.008,0.0062,0.0055,0.0047,0.0047,0.0058,0.0047,0.0046,0.0027,0.0025,0.0019,0.0003,0.0001,0.0004,0.0004,0.0003,0.0003,0,0,0,0,0,0,0,0.0082,0.0082,0.0083,0.0083,0.0081,0.0066,0.0064,0.0053,0.0043,0.0057,0.0056,0.0055,0.0026,0.002,0.0018,0.0001,0.0004,0.0003,0.0002,0.0002,-0.001,-0.001,0,0,0,0,0,0,0.009,0.0083,0.0084,0.0083,0.0082,0.0066,0.0064,0.0067,0.0043,0.004,0.0055,0.0054,0.0023,0.002,0.0017,0.003,0.0003,0.0002,0.0001,-0.0011,-0.001,-0.001,0,0,0,0,0,0,0.009,0.009,0.0085,0.0083,0.0081,0.0067,0.007,0.0067,0.0065,0.0042,0.0039,0.0057,0.0022,0.0018,0.0014,0.0027,0.0001,0.0,-0.0011,-0.001,-0.001,0.0044,0,0,0,0,0,0,0.009,0.0091,0.0095,0.0083,0.0082,0.0087,0.007,0.0067,0.0065,0.0063,0.0042,0.0038,0.0022,0.0016,0.0013,0.0025,-0.0001,-0.0012,-0.0011,-0.001,0.0041,0.0046,0.005,0,0,0,0,0,0.009,0.0101,0.0095,0.0096,0.0088,0.0088,0.0086,0.0073,0.0065,0.0069,0.0055,0.0039,0.0019,0.0015,0.0011,0.0024,-0.0012,-0.0011,-0.001,0.004,0.0045,0.005,0,0,0,0,0,0,0.0101,0.01,0.0093,0.0103,0.0098,0.0085,0.0088,0.0078,0.007,0.0068,0.0045,0.0041,0.004,0.0024,0.0021,0.0022,0.0001,0.0001,0.004,0.0045,0.0049,0.0066,-0.0002,0,0,0,0,0,0.0106,0.0114,0.0107,0.0115,0.0116,0.0102,0.01,0.0092,0.0083,0.0079,0.0064,0.005,0.004,0.0037,0.0023,0.0026,-0.0001,0.0031,0.0036,0.0039,0.005,0.0018,0.002,-0.0006,-0.0006,-0.0006,0,0,0.0112,0.0112,0.0116,0.0117,0.0113,0.0124,0.0101,0.0103,0.0114,0.0076,0.0086,0.0063,0.0043,0.0045,0.0044,0.0035,0.0031,0.0041,0.0044,0.0053,0.0019,0.0022,0.0024,-0.0006,-0.0006,-0.0006,0,0,0.0132,0.013,0.0145,0.0146,0.0144,0.014,0.0144,0.0135,0.0134,0.0136,0.0113,0.0101,0.0087,0.0077,0.007,0.0091,0.0053,0.0084,0.0125,0.0093,0.0095,0.0097,0.0059,0.0057,0.009,0.009,0.009,0,0.0139,0.0159,0.0148,0.0163,0.0173,0.0153,0.0174,0.0171,0.0161,0.0165,0.0147,0.0124,0.0104,0.011,0.0118,0.0102,0.0074,0.0108,0.0099,0.01,0.0101,0.0062,0.0059,0.0093,0.0093,0.0092,0.0092,0,0.017,0.0187,0.0197,0.0213,0.022,0.0234,0.0233,0.0236,0.0229,0.0223,0.0221,0.0188,0.0177,0.0166,0.015,0.015,0.0124,0.0105,0.0087,0.0107,0.0065,0.006,0.0097,0.0096,0.0095,0.0094,0,0,0.0187,0.0215,0.022,0.024,0.025,0.0262,0.0282,0.0298,0.0317,0.0292,0.0308,0.0283,0.0259,0.0249,0.022,0.0195,0.0169,0.0159,0.0156,0.0125,0.0093,0.0075,0.0067,0.0146,0.0146,0.0146,0.006,0,0.0217,0.0261,0.0267,0.0312,0.0337,0.0333,0.036,0.0368,0.0365,0.0372,0.0335,0.0336,0.0294,0.0289,0.0257,0.0194,0.0162,0.0194,0.0077,0.0073,0.0057,0.0064,0.0145,0.0056,0.0055,0.0055,0.0054,0,0.0247,0.0276,0.0328,0.0374,0.0386,0.041,0.0448,0.047,0.0472,0.0467,0.045,0.0416,0.0386,0.0341,0.0244,0.0265,0.0189,0.013,0.0125,0.009,0.0048,0.0033,0.0046,0.0046,0.0047,0.0047,0.0048,0,0.0269,0.032,0.0367,0.0381,0.0427,0.0454,0.0481,0.0499,0.0532,0.0529,0.0538,0.0486,0.0464,0.0367,0.0248,0.0245,0.0126,0.0103,0.0011,0.0008,0.0026,0.0025,0.0028,0.0028,0.0029,0.0029,0.0029,0,0.03,0.0338,0.0384,0.041,0.0478,0.0494,0.0561,0.0575,0.0603,0.0646,0.0593,0.0595,0.0469,0.0384,0.0267,0.0128,0.0136,0.0021,-0.0012,0.0049,0.0052,0.0022,0.0023,0.0025,0.0026,0.0027,0.0027,0,0.0316,0.0346,0.0403,0.0463,0.0491,0.0539,0.0621,0.0663,0.0684,0.0732,0.0735,0.0676,0.057,0.0427,0.0265,0.0159,0.0023,-0.0033,0.0043,0.0015,-0.0081,-0.0077,-0.0138,-0.0139,-0.014,-0.0141,-0.0142,0,0.0327,0.0357,0.044,0.0486,0.0519,0.0596,0.0653,0.0701,0.0748,0.078,0.08,0.0719,0.0658,0.0422,0.026,0.0032,-0.0005,-0.0086,-0.0081,-0.007,-0.0096,-0.009,-0.0085,-0.0144,-0.0144,-0.0144,-0.0145,0,0.0344,0.0373,0.0424,0.0518,0.0588,0.0673,0.0754,0.0795,0.0852,0.0867,0.0859,0.0744,0.0618,0.0429,0.0249,0.0084,-0.0036,-0.0098,-0.0097,-0.0093,-0.0078,-0.0101,-0.0095,-0.0148,-0.0148,-0.0147,-0.0147,0,0.0356,0.0392,0.046,0.0547,0.0636,0.0725,0.0771,0.0829,0.0878,0.091,0.0901,0.0774,0.0702,0.0454,0.0289,0.0126,0.0079,0.0015,0.0009,0.0011,0.0076,0.0119,0.0085,0,0,0,0,0,0.0366,0.0411,0.0486,0.0583,0.067,0.073,0.0828,0.0866,0.0917,0.0921,0.0919,0.0806,0.0576,0.0474,0.0309,0.0247,0.0034,0.0043,-0.0047,-0.0169,-0.0165,-0.0117,0,0,0,0,0,0,0.0374,0.044,0.0481,0.0594,0.0666,0.0769,0.0837,0.0876,0.0881,0.0906,0.0789,0.0747,0.0522,0.0674,0.0301,0.0251,0.0166,-0.0058,-0.0063,-0.0172,-0.0168,-0.0164,-0.0113,0,0,0,0,0]}]]